Regional Weather Roundup
Issued by NWS

Home | Current Version | Previous Version | Text Only | Print | Product List | Glossary On
Versions: 1 2 3 4 5 6 7 8 9 10 11 12 13 14 15 16 17 18 19 20 21 22 23 24 25 26 27 28 29 30 31 32 33 34 35 36 37 38 39 40 41 42 43 44 45 46 47 48 49 50
000
ASUS42 KFFC 300903
RWRGA
WEATHER ROUNDUP FOR GEORGIA
NATIONAL WEATHER SERVICE PEACHTREE CITY GA
500 AM EDT SAT MAY 30 2015

NOTE: "FAIR" INDICATES FEW OR NO CLOUDS BELOW 12,000 FEET WITH NO
SIGNIFICANT WEATHER AND/OR OBSTRUCTIONS TO VISIBILITY.

* = USE WITH CAUTION. THE STATIONS MARKED WITH AN ASTERISK MAY NOT
REPORT WEATHER SUCH AS PRECIPITATION, FOG, OR THUNDER AND ARE NOT
QUALITY CONTROLLED BY NWS.

THE REMARK "TC" DENOTES TEMPERATURE READING IN DEGREES CELSIUS.

GAZ001>058-301000-
NORTH GEORGIA

CITY           SKY/WX    TMP DP  RH WIND       PRES   REMARKS
ATLANTA        CLEAR     69  60  73 SE3       30.14S
ATHENS         CLEAR     65  62  90 CALM      30.16R
CHAMBLEE       CLEAR     65  61  87 CALM      30.15S
PEACHTREE CITY CLEAR     62  60  93 CALM      30.14S
ROME           CLEAR     63  61  93 CALM      30.13R
WEST ATLANTA   CLEAR     63  60  90 CALM      30.14R
GAINESVILLE    MOCLDY    66  61  84 SE5       30.19S
CARTERSVILLE   CLEAR     60  58  92 CALM      30.14R


CITY           SKY/WX    TMP DP  RH WIND       PRES   REMARKS
DALTON*        PTCLDY    63  63 100 CALM      30.14S
MARIETTA       CLEAR     63  62  96 E1        30.15R
BLAIRSVILLE*     N/A     57  50  78 CALM      30.21R HAZE
$$

GAZ059>098-102>109-301000-
CENTRAL GEORGIA

CITY           SKY/WX    TMP DP  RH WIND       PRES   REMARKS
AUGUSTA-BUSH   FOG       64  63  96 CALM      30.15R VSB 1/2
AUGUSTA-DANIEL CLEAR     71  65  81 E5        30.16S
COLUMBUS       CLEAR     67  61  81 NE3       30.11R
MACON          CLEAR     66  65  96 CALM      30.12S
ROBINS AFB     CLEAR     66  65  96 CALM      30.12S


CITY           SKY/WX    TMP DP  RH WIND       PRES   REMARKS
LAGRANGE*      CLEAR     64  64 100 CALM      30.12S
SYLVANIA*      CLEAR     66  66  99 CALM      30.15S
MILLEDGEVILLE* CLEAR     66  66 100 CALM      30.14S
$$

GAZ099>101-110>166-301000-
SOUTH GEORGIA

CITY           SKY/WX    TMP DP  RH WIND       PRES   REMARKS
SAVANNAH       PTCLDY    68  67  96 N3        30.13R
VALDOSTA       CLEAR     67  66  97 CALM      30.10S
ALMA           PTCLDY    66  65  96 CALM      30.11S
FT STEWART     CLEAR     66  65  94 CALM      30.10S FOG
ALBANY         CLEAR     66  62  87 CALM      30.12S
HUNTER AFB     PTCLDY    73  71  94 N1        30.10R
MOODY AFB      CLEAR     67  65  94 MISG      30.09S
BRUNSWICK      CLEAR     66  64  94 CALM      30.11S


CITY           SKY/WX    TMP DP  RH WIND       PRES   REMARKS
BAINBRIDGE*    CLEAR     70  68  94 E3        30.09S
MOULTRIE*      CLEAR     68  64  88 CALM      30.12R
VIDALIA*       CLEAR     68  68 100 NE5       30.13S
WAYCROSS*      CLEAR     67  67  99 CALM      30.11R
DOUGLAS*       CLEAR     72  68  88 E5        30.13S
$$



USA.gov is the U.S. government's official web portal to all federal, state and local government web resources and services.